This is the latest recevied weather packets stored in our database for station/object KF0JJO. If no packets are shown the sender has not sent any weather packets the latest 10 day(s).
| Time | Temp. | Humidity | Pressure | Rain* | Wind** | Luminosity | Snow |
|---|---|---|---|---|---|---|---|
| 1777931577 | 14.44° C | 33% | 1033.2 hPa | 0 mm | - | 374 W/m² | - |
| 1777931274 | 15° C | 32% | 1033.2 hPa | 0 mm | - | 211 W/m² | - |
| 1777930970 | 14.44° C | 35% | 1032.9 hPa | 0 mm | - | 372 W/m² | - |
| 1777930667 | 15° C | 35% | 1033 hPa | 0 mm | - | 186 W/m² | - |
| 1777930363 | 15.56° C | 34% | 1033 hPa | 0 mm | - | 198 W/m² | - |
| 1777930061 | 16.67° C | 31% | 1032.8 hPa | 0 mm | - | 140 W/m² | - |
| 1777929757 | 16.67° C | 32% | 1032.5 hPa | 0 mm | - | 779 W/m² | - |
| 1777929455 | 17.22° C | 29% | 1032.4 hPa | 0 mm | - | 641 W/m² | - |
| 1777929150 | 17.78° C | 30% | 1032.7 hPa | 0 mm | - | 747 W/m² | - |
| 1777928848 | 17.22° C | 30% | 1032.6 hPa | 0 mm | - | 737 W/m² | - |
| 1777928545 | 17.22° C | 30% | 1032.3 hPa | 0 mm | - | 720 W/m² | - |
| 1777928242 | 16.67° C | 30% | 1032.4 hPa | 0 mm | - | 884 W/m² | - |
| 1777927940 | 16.67° C | 31% | 1032.5 hPa | 0 mm | - | 726 W/m² | - |
| 1777927638 | 17.22° C | 30% | 1032.4 hPa | 0 mm | - | 310 W/m² | - |
| 1777927336 | 16.67° C | 31% | 1032.3 hPa | 0 mm | - | 660 W/m² | - |
| 1777927035 | 17.22° C | 32% | 1032.2 hPa | 0 mm | - | 230 W/m² | - |
| 1777926732 | 17.22° C | 30% | 1032.2 hPa | 0 mm | - | 802 W/m² | - |
| 1777926432 | 17.22° C | 30% | 1032.1 hPa | 0 mm | - | 707 W/m² | - |
| 1777926129 | 16.67° C | 32% | 1032.1 hPa | 0 mm | - | 819 W/m² | - |
| 1777925826 | 17.22° C | 29% | 1032.2 hPa | 0 mm | - | 493 W/m² | - |
| 1777925524 | 17.78° C | 31% | 1032 hPa | 0 mm | - | 884 W/m² | - |
| 1777925221 | 17.78° C | 31% | 1032 hPa | 0 mm | - | 1019 W/m² | - |
| 1777924917 | 17.78° C | 30% | 1031.8 hPa | 0 mm | - | 871 W/m² | - |
| 1777924613 | 17.78° C | 31% | 1031.7 hPa | 0 mm | - | 509 W/m² | - |
| 1777924309 | 18.33° C | 30% | 1031.8 hPa | 0 mm | - | 923 W/m² | - |
* Rain latest hour (hover to see other rain measurements)
** Current wind speed in m/s (hover to see current wind gust speed)